Content
SEND FEEDBACK

Daily
Averages
Monthly
Summary
French Polynesia

PAPEETE, FRENCH POLYNESIA


Home > Oceania > French Polynesia
Elevation: 7 feet     Latitude: 17 33S     Longitude: 149 36W

WEATHER
 
SELECT A DAY
Number of Records: 217,445;   Date Range: 6/30/96 - 12/19/14
 
SHARE

PRINT THIS DATA

[ ← Previous Day ]
WEATHER ALMANAC - OCTOBER 18, 2013
[ Next Day → ]
[ °C ]   °F
Weather ElementAverageHighLow
Temperature79.4 °F86 °F (11:00 am)71.6 °F (7:30 pm)
Dewpoint70.7 °F74 °F (11:00 am)66 °F (5:00 am)
Humidity74.2 %94 % (7:30 pm)58 % (8:00 am)
Barometer29.88 in29.92 in (8:00 am)29.80 in (3:00 pm)
Wind Speed11.1 mph25.3 mph (6:30 pm)
Weather ElementAverage
Visibility7.1 mi
Wind DirectionENE (83.1 °)

Weather ElementTotal
Precipitation---
Cooling Degree Days13.8 (Base 65)
Growing Degree Days28.8 (Base 50)
Averaged from 51 records on October 18, 2013
WEATHER CONDITIONS BREAKOUT
WIND DIRECTION BREAKOUT
WEATHER BY HOUR - OCTOBER 18, 2013
[ °C ]   °F
Local TimeTemperatureDewpointHumidityBarometerVisibilityWind DirectionWind SpeedGust SpeedPrecipitationEventsConditions
2:00 AM77.0 °F68.0 °F74 %29.86 in6.2 miENE (70°)9.2 mphPartly Cloudy
2:30 AM77.0 °F66.2 °F69 %29.86 in6.2 miENE (60°)8.1 mphPartly Cloudy
3:00 AM77.0 °F66.2 °F69 %29.86 in6.2 miENE (60°)9.2 mphPartly Cloudy
3:30 AM77.0 °F68.0 °F74 %29.86 in6.2 miENE (60°)9.2 mph
4:00 AM77.0 °F66.2 °F69 %29.86 in6.2 miENE (60°)8.1 mph
4:30 AM77.0 °F66.2 °F69 %29.86 in6.2 miENE (60°)11.5 mph
5:00 AM77.0 °F66.2 °F69 %29.86 in6.2 miENE (60°)9.2 mph
5:00 AM76.0 °F66.0 °F63 %29.87 in37.0 miENE (60°)9.2 mphClear
5:30 AM77.0 °F68.0 °F74 %29.86 in6.2 miENE (60°)10.4 mph
6:00 AM77.0 °F68.0 °F74 %29.89 in6.2 miENE (60°)10.4 mphPartly Cloudy
6:30 AM78.8 °F69.8 °F74 %29.89 in6.2 miENE (60°)12.7 mphPartly Cloudy
7:00 AM80.6 °F69.8 °F70 %29.89 in6.2 miNE (50°)12.7 mphPartly Cloudy
7:30 AM82.4 °F71.6 °F70 %29.89 in6.2 miNE (50°)11.5 mphPartly Cloudy
8:00 AM83.0 °F71.0 °F58 %29.92 in16.0 miNE (50°)22.4 mphPartly Cloudy
8:00 AM82.4 °F71.6 °F70 %29.92 in6.2 miNE (50°)11.5 mphPartly Cloudy
8:30 AM82.4 °F71.6 °F70 %29.92 in6.2 miNE (40°)12.7 mphPartly Cloudy
9:00 AM84.2 °F71.6 °F66 %29.92 in6.2 miNE (40°)12.7 mphPartly Cloudy
9:30 AM84.2 °F73.4 °F70 %29.89 in6.2 miNE (40°)12.7 mphPartly Cloudy
10:00 AM84.2 °F73.4 °F70 %29.89 in6.2 miNE (40°)11.5 mphPartly Cloudy
10:30 AM84.2 °F73.4 °F70 %29.89 in6.2 miNNE (30°)12.7 mphScattered Clouds
11:00 AM85.0 °F74.0 °F62 %29.91 in12.0 miNE (50°)10.4 mphScattered Clouds
11:00 AM86.0 °F73.4 °F66 %29.89 in6.2 miNE (50°)10.4 mphPartly Cloudy
11:30 AM86.0 °F73.4 °F66 %29.89 in6.2 miNE (50°)9.2 mphScattered Clouds
12:00 PM84.2 °F73.4 °F70 %29.89 in6.2 miNE (50°)10.4 mphMostly Cloudy
12:30 PM86.0 °F73.4 °F66 %29.86 in6.2 miNNE (30°)12.7 mphMostly Cloudy
1:00 PM84.2 °F73.4 °F70 %29.86 in6.2 miNNE (30°)13.8 mphMostly Cloudy
1:30 PM86.0 °F73.4 °F66 %29.83 in6.2 miNE (50°)10.4 mphScattered Clouds
2:00 PM86.0 °F74.0 °F60 %29.84 in16.0 miNE (40°)11.5 mphScattered Clouds
2:00 PM86.0 °F73.4 °F66 %29.83 in6.2 miNE (40°)11.5 mphScattered Clouds
2:30 PM84.2 °F73.4 °F70 %29.83 in6.2 miNE (40°)10.4 mphMostly Cloudy
3:00 PM84.2 °F73.4 °F70 %29.80 in6.2 miNE (50°)10.4 mphMostly Cloudy
3:30 PM84.2 °F73.4 °F70 %29.83 in6.2 miNE (50°)10.4 mphMostly Cloudy
4:00 PM82.4 °F73.4 °F74 %29.83 in6.2 miNE (40°)8.1 mphMostly Cloudy
4:30 PM82.4 °F73.4 °F74 %29.83 in6.2 miNE (50°)8.1 mphMostly Cloudy
5:00 PM82.0 °F73.0 °F67 %29.84 in12.0 miNE (50°)6.9 mphOvercast
5:00 PM82.4 °F73.4 °F74 %29.83 in6.2 miNE (50°)6.9 mphMostly Cloudy
5:30 PM80.6 °F73.4 °F79 %29.83 in6.2 miNE (40°)5.8 mphMostly Cloudy
6:00 PM77.0 °F68.0 °F74 %29.86 in6.2 miSouth (190°)23.0 mphMostly Cloudy
6:30 PM75.2 °F69.8 °F83 %29.86 in6.2 miSouth (190°)25.3 mphMostly Cloudy
7:00 PM73.4 °F69.8 °F88 %29.89 in1.2 miSouth (190°)21.9 mphRainHeavy Rain
7:30 PM71.6 °F69.8 °F94 %29.89 in1.9 miSouth (190°)11.5 mphRainRain
8:00 PM72.0 °F70.0 °F91 %29.91 in6.0 miSouth (190°)11.5 mphRainLight Rain
8:00 PM73.4 °F69.8 °F88 %29.89 in6.2 miSSW (200°)11.5 mphRainLight Rain
8:30 PM71.6 °F69.8 °F94 %29.92 in6.2 miSouth (180°)10.4 mphRainLight Rain
9:00 PM71.6 °F69.8 °F94 %29.92 in3.1 miSouth (190°)11.5 mphRainLight Rain
9:30 PM71.6 °F68.0 °F88 %29.92 in5.0 miSouth (190°)13.8 mphRainLight Rain
10:00 PM73.4 °F68.0 °F83 %29.92 in6.2 miSouth (190°)11.5 mphMostly Cloudy
10:30 PM73.4 °F68.0 °F83 %29.92 in5.0 miESE (110°)5.8 mphRainLight Rain
11:00 PM73.0 °F70.0 °F86 %29.91 in5.0 miENE (60°)4.5 mphRainLight Rain
11:00 PM73.4 °F69.8 °F88 %29.89 in5.0 miVariable2.3 mphRainLight Rain
11:30 PM73.4 °F69.8 °F88 %29.92 in5.0 miNorth (350°)8.1 mphRainLight Rain
Hourly data recorded from NTAA, located miles away from Papeete, French Polynesia







STORIES FROM OUR PARTNERS